Temp
-2 -2 -2 -2 -2 -2 -2 -2 -2 -2 -2 -1 -1 -1 -1 -0 -0 -0 0 0 1 1 1 1 1 2 2
-2 -2 -2 -2 -2 -2 -3 -3 -3 -3 -3 -2 -2 -1 -1 -1 -1 -1 -0 -0 -0 -0 0 1 1 2 2
-2 -2 -2 -3 -3 -3 -3 -3 -3 -3 -3 -3 -3 -2 -2 -2 -1 -1 -1 -1 -1 -1 -1 -0 0 0 1
-2 -3 -3 -3 -3 -3 -3 -3 -3 -4 -4 -3 -3 -3 -3 -3 -2 -2 -2 -2 -2 -1 -1 -1 -1 -1 0
-3 -3 -3 -3 -3 -3 -3 -4 -4 -4 -3 -3 -3 -4 -4 -4 -3 -3 -3 -3 -2 -2 -2 -2 -1 -1 -0
-3 -2 -3 -3 -4 -4 -4 -4 -3 -3 -3 -4 -4 -4 -4 -4 -4 -4 -3 -3 -2 -2 -2 -2 -1 -1 -1
-3 -4 -4 -4 -5 -4 -4 -4 -4 -4 -4 -4 -4 -4 -4 -4 -4 -4 -3 -3 -3 -2 -2 -2 -1 -1 -1
-4 -4 -4 -4 -4 -4 -5 -5 -5 -5 -4 -4 -4 -4 -4 -4 -4 -4 -3 -3 -3 -2 -2 -1 -1 -1 -1
-4 -4 -5 -5 -5 -5 -5 -5 -5 -5 -5 -5 -4 -5 -5 -4 -4 -4 -3 -3 -3 -3 -2 -2 -2 -1 -1
-5 -6 -6 -6 -6 -6 -7 -6 -6 -5 -4 -5 -5 -5 -4 -3 -3 -4 -4 -3 -3 -3 -2 -2 -2 -2 -2
-6 -6 -6 -6 -6 -7 -7 -8 -7 -7 -6 -6 -6 -6 -5 -4 -4 -3 -3 -3 -4 -4 -3 -3 -2 -2 -2
-7 -7 -7 -7 -8 -8 -8 -8 -8 -8 -7 -7 -6 -6 -5 -4 -3 -3 -2 -3 -3 -3 -3 -3 -2 -2 -1
-7 -7 -8 -8 -9 -8 -8 -8 -8 -7 -7 -6 -7 -6 -5 -4 -3 -3 -2 -2 -2 -2 -2 -1 -1 -1 -2
-8 -8 -8 -8 -8 -8 -8 -8 -8 -7 -6 -6 -5 -5 -4 -4 -4 -3 -3 -2 -2 -1 -1 -1 -1 -1 -1
-9 -8 -8 -8 -8 -8 -8 -8 -8 -7 -6 -5 -4 -4 -4 -4 -3 -2 -2 -2 -1 -1 -1 -1 -0 -1 -2
-9 -9 -9 -9 -8 -8 -8 -8 -7 -7 -6 -5 -4 -4 -3 -1 -1 -2 -2 -1 -1 -1 -1 -1 -0 -1 -1
-9 -9 -9 -8 -9 -9 -8 -8 -7 -6 -5 -4 -4 -4 -3 -2 -1 -1 -2 -2 -2 -1 -1 -1 -1 0 0
Height
748 744 740 735 731 727 722 716 709 703 698 691 686 682 676 671 666 661 658 654 651 648 645 643 641 640 640
739 736 732 727 723 717 713 708 701 696 689 683 678 671 665 660 655 650 646 642 639 637 634 632 630 628 626
733 728 724 721 714 710 705 698 693 687 678 674 668 661 656 650 644 639 634 630 627 625 622 620 618 617 615
732 725 720 713 709 702 695 690 684 678 667 664 657 651 645 639 633 627 623 619 616 612 609 607 606 605 603
727 722 715 708 703 697 689 681 674 672 658 652 647 639 632 626 620 615 611 607 603 599 596 594 593 591 591
723 716 710 705 698 691 684 677 661 663 654 640 639 627 622 615 609 604 599 594 589 585 582 580 578 577 576
718 713 706 700 693 685 678 671 662 653 650 631 629 618 612 604 597 592 586 581 576 571 568 565 563 562 561
713 706 700 694 689 681 673 664 654 646 643 628 620 610 602 594 585 578 574 569 564 559 554 551 548 546 545
705 699 694 687 683 676 667 661 648 639 632 625 612 604 594 579 572 568 564 558 552 546 541 537 533 530 527
697 691 686 680 675 671 664 657 650 635 625 622 611 605 585 571 566 559 551 545 540 533 527 522 519 515 511
691 685 679 674 668 663 659 654 645 637 623 622 609 604 599 578 558 551 546 534 528 520 514 509 504 501 495
687 680 674 668 661 656 649 643 638 631 618 614 607 599 590 576 562 544 537 528 521 511 503 495 489 483 478
683 676 670 663 656 649 642 635 627 620 612 606 600 591 584 573 561 545 535 520 513 504 493 483 473 466 459
679 672 665 658 651 645 637 629 622 609 605 599 592 585 575 565 557 543 534 524 507 497 485 472 461 452 446
675 668 660 654 646 640 634 626 620 609 597 590 585 579 569 560 549 540 530 519 507 493 480 466 455 447 444
671 665 658 651 644 636 631 624 616 607 598 589 580 570 561 549 543 537 530 519 505 492 480 469 458 452 447
666 659 653 647 641 633 626 620 612 605 596 588 581 575 565 554 541 536 530 519 507 493 482 473 464 456 453
Wind_Speed
31 32 33 32 32 30 29 30 33 38 38 39 41 40 41 42 43 44 45 45 45 44 43 43 43 42 42
36 33 33 33 32 30 30 34 33 33 37 38 39 40 41 41 41 42 43 43 43 43 44 45 44 43 44
33 35 33 28 30 33 31 34 31 33 38 36 36 38 39 41 42 42 42 42 42 43 43 43 43 43 43
29 25 29 33 30 30 29 30 31 33 37 35 37 38 38 40 41 41 41 40 40 40 41 41 41 41 43
21 25 28 28 27 30 30 33 32 31 35 33 31 36 37 38 38 38 37 37 38 39 39 40 40 40 40
24 24 29 28 31 30 28 28 15 27 25 39 32 36 34 35 36 37 39 40 41 41 41 41 42 43 43
29 29 29 32 31 29 32 29 29 34 31 34 33 35 35 36 38 39 39 39 39 40 40 41 42 43 44
29 31 30 30 34 31 32 33 33 33 27 15 33 33 35 36 40 38 35 34 34 35 37 38 39 41 43
27 27 34 30 26 27 26 22 16 27 33 24 24 31 35 38 31 24 29 36 38 38 38 39 40 41 43
28 27 23 25 24 21 24 21 20 12 17 17 27 22 8 18 22 37 31 31 32 35 37 37 38 39 37
25 25 25 23 24 23 24 24 24 23 36 28 22 26 16 19 29 30 32 33 33 35 33 33 34 36 35
23 24 25 25 27 29 31 30 28 32 40 36 25 26 23 16 14 28 36 36 30 31 33 35 35 36 38
22 24 25 29 31 28 29 29 29 30 30 29 29 31 27 22 15 30 28 29 35 29 34 32 32 32 30
23 26 27 26 27 25 26 28 27 29 24 23 26 27 26 27 23 25 27 12 36 33 34 32 29 27 24
24 25 26 25 28 26 24 25 20 22 27 30 26 24 24 26 21 22 24 27 32 35 32 28 23 17 8
25 23 24 24 25 27 23 20 20 22 24 27 28 27 24 15 12 16 21 26 33 32 30 18 15 15 12
24 25 24 24 24 23 22 21 21 21 23 23 21 15 11 11 16 19 19 27 30 29 30 23 10 12 12
Wind_Direction
300 304 305 303 304 303 299 297 293 296 298 294 293 293 290 288 288 287 285 283 280 278 275 273 270 267 267
299 302 303 307 305 305 303 297 296 294 294 293 295 293 290 288 287 284 282 280 278 277 276 274 273 271 270
294 298 303 311 307 306 305 300 299 298 295 296 293 291 291 290 288 287 285 282 280 276 274 273 270 268 266
287 298 307 310 305 305 304 303 303 302 295 293 292 291 290 289 287 285 282 281 279 276 273 270 269 266 262
311 308 304 309 307 306 301 303 303 302 296 295 296 292 289 289 286 285 283 280 277 274 271 268 265 262 260
304 302 304 304 303 302 300 308 303 309 300 296 298 292 291 288 287 287 286 284 281 277 274 270 266 263 259
302 298 297 297 297 303 303 301 298 299 301 293 298 292 293 291 291 290 288 284 281 278 274 271 266 263 260
296 293 294 301 304 301 300 298 295 297 301 289 297 292 297 294 293 289 287 287 284 279 275 272 267 263 259
299 298 301 301 302 304 300 305 299 304 306 292 300 304 302 294 291 291 293 291 286 282 278 274 269 266 263
309 308 307 308 308 304 300 297 298 307 307 310 307 318 312 299 299 302 300 297 294 289 284 278 273 268 261
311 311 311 311 310 310 303 292 291 284 290 305 300 300 289 296 302 302 300 299 297 296 292 283 276 268 261
311 308 310 309 309 308 306 300 292 282 293 294 282 288 288 291 293 299 305 303 299 292 289 288 285 278 267
308 307 307 305 305 306 308 308 304 298 301 298 284 285 283 283 286 295 302 310 306 303 301 294 288 279 268
306 304 306 308 308 311 310 312 311 309 311 305 300 293 293 291 290 290 299 308 312 314 315 308 303 289 275
310 309 308 311 309 314 310 310 307 307 313 319 319 313 297 287 291 290 303 313 322 323 324 324 332 346 346
307 304 304 306 307 310 310 307 306 308 310 316 325 331 335 327 295 290 313 325 330 334 339 336 344 10 14
302 302 302 303 308 306 308 307 308 308 309 315 320 324 327 323 306 327 323 329 334 341 348 343 337 3 28